Wind_Speed
60 59 58 57 55 53 52 50 48 47 45 44 42 40 39 38 36 35 33 32 31 30 28 27 24 22 21 21 20 19 19 19 19 19 19 18 18 18 18 19 19 20 20 20 21 21 22 23 23 24 24 24 24 24 25 26 26 25 26 26 26 24 23 21 18 15 12 9 7 8 10 12 13 13 14 15 16 16 14 13 12 14 17 17 18 19 20 22
61 61 60 59 58 56 54 52 51 49 48 47 45 43 42 40 39 37 36 35 34 32 31 29 27 25 24 23 22 21 21 20 20 21 20 20 20 20 20 21 21 22 22 22 22 23 24 24 25 26 26 26 27 27 27 28 28 28 28 28 27 25 23 21 20 18 13 9 9 8 9 11 12 12 12 14 15 14 12 11 12 13 16 18 20 22 22 20
62 62 61 61 60 58 56 55 53 52 50 49 47 46 44 43 41 40 38 37 36 35 33 32 30 28 26 25 24 22 22 22 22 22 22 22 22 22 22 22 23 23 23 24 24 25 25 26 27 28 29 29 29 30 30 30 30 30 31 30 28 25 23 23 22 18 12 9 9 9 8 10 11 11 11 11 11 12 11 10 11 13 15 16 17 19 19 19
61 62 62 62 61 60 59 57 56 54 53 51 50 48 47 45 44 42 40 39 38 37 35 34 32 30 28 27 25 24 23 23 23 24 24 24 23 24 24 24 25 25 25 26 26 27 27 28 29 29 31 32 32 33 33 32 32 32 31 30 28 26 25 24 21 16 12 9 8 9 8 8 9 10 10 9 8 9 8 8 8 11 13 14 13 15 16 19
60 62 63 63 63 62 61 59 58 56 55 54 52 50 49 47 46 45 43 41 40 39 38 36 34 32 30 29 27 26 25 25 25 26 26 26 26 26 26 27 27 28 28 28 28 29 29 31 31 32 32 33 34 34 34 34 34 33 31 30 29 28 26 22 16 14 13 9 7 8 7 7 7 8 9 8 7 6 5 6 4 8 15 16 13 16 17 18
59 61 62 63 63 63 62 61 60 58 57 56 54 53 51 49 48 47 45 44 42 41 39 38 36 34 32 31 29 28 27 27 27 27 28 28 28 28 29 29 29 30 30 30 31 31 31 32 32 33 33 34 35 35 36 35 35 35 33 31 29 27 25 18 13 13 12 9 7 6 7 9 9 7 7 7 6 3 1 1 1 3 14 17 16 20 19 20
60 60 61 62 63 64 63 63 62 60 59 58 56 55 53 51 50 49 48 46 44 43 41 40 38 36 34 32 31 30 28 28 29 29 30 30 30 30 30 31 31 32 32 32 32 32 33 33 33 34 34 35 36 36 37 36 37 36 34 32 28 24 23 17 13 14 12 10 7 5 8 10 8 6 5 4 4 3 6 6 6 8 5 11 13 16 16 20
61 60 60 61 62 64 64 64 63 62 61 60 58 57 55 53 52 51 49 48 46 45 43 42 41 39 36 34 33 31 30 30 31 31 32 32 32 32 32 32 32 33 33 34 34 34 34 34 35 35 36 36 37 37 37 37 37 36 35 32 25 22 23 17 14 13 11 9 8 7 9 9 7 5 4 3 4 4 7 10 13 17 12 13 15 15 13 16
63 62 61 61 61 63 64 64 64 64 62 61 60 59 57 55 54 52 51 50 48 46 45 44 43 41 38 37 35 33 31 32 33 33 33 34 34 33 33 34 34 34 35 35 35 35 35 36 36 37 37 38 38 38 38 38 37 36 36 30 23 21 21 18 14 13 11 9 8 9 10 9 8 6 5 3 6 6 7 11 15 19 17 16 18 20 18 13
65 64 62 61 61 62 63 64 65 65 64 63 62 60 58 57 55 54 53 51 50 48 47 46 44 43 41 39 36 34 33 34 34 34 35 35 35 35 35 35 35 35 36 36 37 37 36 37 37 38 38 39 39 38 39 39 38 37 35 29 24 21 18 16 15 14 11 8 8 10 11 8 7 7 7 5 5 7 9 13 14 18 18 17 18 19 19 17
68 66 64 62 61 61 62 63 64 65 65 64 63 62 60 58 57 56 54 53 51 50 48 47 46 45 42 40 37 36 36 36 36 36 36 36 36 36 36 36 36 36 36 37 37 37 37 38 38 39 39 40 40 39 40 39 39 37 34 32 28 24 19 15 16 15 11 9 9 11 12 9 7 6 5 4 6 9 11 14 15 16 19 19 19 19 20 21
69 68 66 64 63 62 62 63 64 64 65 65 64 63 61 60 58 57 56 54 52 51 49 48 47 46 44 41 39 38 37 37 37 37 37 37 37 37 37 37 37 37 37 37 38 38 38 38 39 39 40 41 40 41 41 40 40 37 36 35 30 29 23 14 13 13 11 11 11 11 10 8 7 5 3 4 9 12 13 15 15 15 19 20 21 22 23 23
69 69 68 66 65 63 62 62 63 64 65 65 65 64 63 62 60 58 57 55 54 52 50 49 48 47 45 42 41 40 38 38 39 38 38 38 38 38 38 38 38 38 38 38 38 39 39 39 40 40 41 42 41 42 42 41 40 37 35 36 33 32 25 17 15 14 14 14 13 11 9 8 7 7 8 8 11 13 15 16 16 16 19 22 22 22 24 23
68 69 69 68 67 65 63 63 63 63 64 64 65 65 64 63 61 60 58 57 55 53 51 50 49 48 46 44 43 42 40 40 39 38 38 38 38 39 39 39 39 39 39 39 39 39 40 40 40 41 41 42 43 43 41 41 42 39 36 37 36 32 26 22 20 17 17 13 11 8 6 7 8 10 12 13 11 11 14 16 19 19 18 20 21 22 23 22
68 69 70 69 68 67 64 64 63 63 63 64 65 65 65 64 63 61 59 58 56 54 52 51 50 49 46 45 45 42 41 40 39 39 39 39 39 39 39 40 40 40 39 39 39 40 41 41 41 41 41 42 43 43 41 41 43 42 41 41 38 33 28 26 22 18 16 12 12 9 6 8 10 11 13 14 11 9 12 14 17 21 20 20 20 20 21 21
66 68 69 70 69 68 66 65 64 63 63 63 64 65 65 64 64 62 60 59 57 55 53 51 51 48 47 48 46 43 41 40 40 41 40 39 38 39 39 40 40 40 40 40 39 40 41 42 41 42 42 42 43 42 41 42 43 43 43 42 39 36 31 28 24 18 17 15 12 10 10 11 12 13 14 16 14 11 11 13 14 18 22 23 23 21 21 21
65 67 68 69 70 69 68 67 65 64 63 63 64 64 64 65 64 63 62 60 58 56 54 52 51 49 49 49 45 43 42 41 42 42 40 39 38 39 40 40 40 40 41 40 40 40 41 43 43 43 43 43 44 43 43 45 45 44 44 42 41 37 33 31 26 18 18 18 12 10 12 12 10 13 17 19 17 13 12 13 14 16 19 22 23 24 24 24
63 65 67 68 69 70 69 68 66 65 64 64 64 64 65 65 65 64 62 61 59 57 55 53 52 50 50 48 44 43 42 42 43 43 41 40 39 39 40 41 40 40 41 41 40 41 42 43 44 44 44 44 44 44 45 46 46 45 44 44 41 38 35 33 30 22 18 19 15 12 12 9 6 10 17 18 19 16 13 14 14 16 18 20 23 25 27 28
61 64 66 67 68 69 70 69 68 66 65 64 64 64 65 64 64 64 63 61 60 58 55 54 53 51 50 48 45 43 43 44 44 42 41 40 39 40 41 41 40 41 41 41 41 41 42 43 44 45 45 45 44 44 45 46 45 44 44 43 42 39 36 33 32 28 23 21 18 14 11 7 4 8 15 18 19 17 14 14 15 16 17 19 22 24 27 29
59 62 64 66 67 68 69 69 69 67 66 65 64 64 64 64 64 63 62 61 60 58 56 55 53 51 51 49 44 44 46 45 42 40 41 41 41 41 41 41 40 41 41 41 42 42 43 44 45 46 46 46 45 45 46 45 44 43 43 43 41 40 37 34 31 29 26 21 17 15 12 9 6 6 10 14 15 13 12 14 15 15 15 16 20 24 26 28
57 60 62 64 66 67 68 69 69 68 67 66 65 64 64 64 63 62 62 61 59 58 56 54 53 51 51 48 45 47 47 43 41 42 43 42 41 41 41 41 40 41 41 41 42 43 42 43 44 45 46 46 45 45 45 45 44 43 42 42 41 39 37 35 32 28 23 19 15 14 13 10 8 5 6 11 12 11 11 13 13 14 15 15 18 22 25 27
56 58 60 62 64 66 67 68 69 69 68 66 65 64 64 64 64 64 63 62 60 59 57 55 54 52 51 49 48 48 46 43 43 43 43 43 42 41 40 40 41 41 41 41 42 42 42 43 44 45 46 45 44 44 44 44 43 43 42 41 40 39 36 33 31 28 24 20 16 15 13 9 6 5 7 8 10 9 9 10 10 12 14 14 15 18 22 26
54 56 58 61 63 64 66 67 68 68 68 67 65 64 65 64 64 64 63 62 61 60 58 56 55 53 52 50 49 48 46 45 44 43 44 43 42 41 40 41 41 42 42 41 42 42 42 43 44 46 46 45 43 43 43 43 42 42 42 41 39 38 35 29 28 28 24 20 13 10 8 4 4 5 6 6 7 7 7 9 9 8 10 11 12 14 19 24
52 54 56 59 61 63 64 65 66 67 68 67 66 65 65 64 64 64 63 62 61 60 58 57 55 54 53 51 50 49 47 46 44 45 45 43 42 42 41 41 42 42 42 42 42 42 43 44 44 46 47 45 44 43 42 41 41 40 39 40 38 36 35 31 27 23 18 13 6 3 2 2 4 3 3 1 2 3 5 7 6 6 7 9 11 12 14 19
50 52 54 57 59 61 62 64 65 66 67 66 66 65 65 64 64 64 63 62 61 60 59 58 56 55 53 52 52 50 48 47 47 47 46 44 43 43 42 42 42 43 43 43 43 43 43 44 44 46 46 45 43 43 42 40 39 39 38 38 37 35 33 31 27 18 10 6 3 3 1 4 4 3 3 3 4 6 7 6 6 6 6 10 13 14 13 15
48 50 52 54 57 59 61 62 63 64 65 65 65 65 64 64 64 63 63 62 61 61 60 58 57 56 55 54 53 50 49 49 47 46 46 44 44 44 43 43 43 44 44 44 44 44 43 44 44 45 45 43 42 42 41 40 38 38 39 37 35 34 31 29 23 12 6 5 7 5 3 7 6 3 3 3 4 6 7 6 6 8 10 12 14 15 14 15
47 48 50 52 54 57 59 60 61 62 63 64 64 64 64 63 63 63 62 62 61 60 59 58 58 57 56 55 53 52 51 48 46 47 48 46 45 45 44 44 45 45 45 45 45 45 44 44 46 46 44 42 41 40 40 39 38 38 39 37 34 33 30 26 18 7 4 5 8 8 7 10 7 2 1 2 3 4 5 6 7 8 12 14 14 16 16 16
45 47 49 50 52 54 56 58 59 60 61 62 63 63 63 62 63 62 62 62 61 59 58 58 58 57 56 55 54 52 50 50 50 50 49 46 46 46 46 46 46 46 46 46 45 45 44 45 46 46 44 41 40 38 38 37 37 37 37 35 33 31 28 22 12 4 4 4 5 7 9 9 6 4 3 5 7 6 5 7 7 7 10 12 15 19 19 18
44 45 47 49 51 52 54 56 57 58 59 60 61 62 62 62 61 61 61 61 59 58 57 58 58 57 56 56 54 52 52 54 53 50 48 48 48 48 47 47 47 47 47 46 46 46 46 45 46 45 43 40 38 37 37 35 35 37 36 34 32 29 25 18 7 2 4 5 5 5 8 8 6 5 5 8 10 10 7 5 4 7 11 12 14 17 20 20
42 44 45 47 49 50 52 54 55 56 57 58 60 60 60 60 60 60 61 59 56 56 57 57 56 56 56 55 53 53 55 54 50 50 51 51 50 49 48 49 48 48 47 47 47 47 46 46 46 45 41 38 36 36 36 34 35 36 34 32 31 27 22 15 5 0 2 4 6 7 9 9 7 6 8 10 11 11 9 6 4 8 14 14 12 15 19 19
41 42 43 45 47 49 51 52 53 55 56 57 58 58 58 58 58 59 59 57 55 56 57 56 55 55 55 54 53 55 54 51 50 52 53 50 50 50 49 49 49 48 48 47 47 46 46 46 44 42 40 37 35 35 34 34 34 34 32 31 30 25 19 11 4 3 3 4 7 9 9 9 8 6 8 9 9 8 9 9 8 10 15 15 13 17 19 17
40 41 42 43 45 48 49 50 52 53 55 55 56 56 57 57 56 56 57 54 53 56 57 55 54 54 54 53 53 53 52 50 52 53 51 50 50 50 50 50 49 49 48 47 46 46 45 44 42 40 37 34 33 33 33 32 33 33 31 29 28 25 19 10 3 5 7 7 8 9 9 9 9 7 8 8 7 7 7 9 11 11 14 15 15 18 18 17
39 39 40 42 43 45 46 48 50 52 53 54 54 55 55 54 54 54 55 53 53 56 57 54 53 53 53 52 51 51 49 49 51 51 50 50 50 50 50 50 50 49 49 47 46 45 44 41 39 37 34 32 32 31 30 31 31 30 29 28 25 23 18 6 4 6 7 8 9 9 9 9 8 8 8 6 6 5 5 6 10 11 13 15 16 17 15 18
38 38 39 40 41 43 45 47 49 51 51 52 52 52 52 51 52 53 53 53 54 56 55 51 51 52 51 50 49 48 47 47 48 48 48 49 49 49 49 49 49 49 47 46 45 44 41 38 36 35 31 29 29 28 28 31 32 28 27 27 24 21 14 2 6 7 7 9 10 11 10 8 6 6 6 6 6 5 2 6 8 9 10 13 14 15 17 22
37 37 38 39 40 42 44 45 47 49 49 50 50 50 49 49 52 52 53 53 53 54 52 50 50 50 49 49 47 46 45 45 45 45 45 46 47 47 47 47 48 47 44 44 42 40 37 34 33 32 28 25 26 27 28 31 32 28 27 26 21 18 13 2 7 9 9 9 11 12 10 9 7 4 3 4 4 2 2 8 10 10 12 16 17 14 16 22
36 37 37 38 39 41 43 44 46 47 48 48 48 47 48 52 55 54 54 53 51 52 51 50 50 48 47 46 44 44 44 43 43 43 43 44 44 44 44 45 45 44 42 40 38 36 36 33 29 28 27 25 26 26 27 30 31 28 27 26 20 15 13 5 7 11 11 10 10 11 11 11 9 5 3 3 2 1 4 7 8 10 15 20 21 18 16 17
35 36 36 37 39 40 42 43 44 45 46 46 46 47 51 54 53 51 48 45 45 49 48 47 47 46 45 44 43 43 43 41 41 43 42 42 42 41 42 42 42 41 39 36 35 35 35 32 29 28 28 26 25 25 27 31 32 29 26 24 21 17 12 7 8 10 10 10 10 11 11 12 10 7 7 8 8 7 6 5 7 11 15 20 23 22 19 16
35 35 36 37 38 39 41 42 42 43 44 44 46 49 52 50 47 45 41 37 40 44 43 43 45 44 44 45 42 42 41 40 41 41 39 39 39 39 39 39 39 38 35 33 35 35 33 30 30 29 27 24 23 24 26 29 30 27 23 22 22 19 12 7 9 10 10 10 11 12 11 11 11 10 10 10 10 11 11 9 12 19 21 21 26 27 23 19
34 35 35 36 37 38 39 40 41 42 42 44 47 49 49 44 41 38 34 35 41 43 42 44 45 44 44 42 40 41 41 39 39 38 38 38 37 37 36 36 37 35 32 33 34 34 32 30 29 29 26 22 22 25 27 27 26 24 21 21 21 20 12 7 9 9 10 12 13 15 14 13 12 12 11 11 12 14 15 15 18 24 24 23 26 28 25 22
34 34 35 35 36 37 37 38 39 40 42 44 45 45 43 40 38 37 35 40 46 47 45 45 44 42 41 39 39 40 39 37 36 37 37 35 34 34 35 35 35 33 32 33 33 33 32 30 28 27 25 22 23 27 27 22 20 20 20 22 22 21 16 10 8 10 12 15 16 16 16 15 13 12 13 13 14 16 17 18 20 24 26 27 27 29 30 28
33 34 34 34 35 36 36 37 38 40 42 42 41 42 40 38 38 39 42 46 48 46 43 41 40 38 38 39 39 38 38 36 35 36 35 32 33 35 34 33 33 32 32 32 32 34 32 28 28 27 25 24 25 26 23 20 20 21 22 23 22 22 20 15 12 11 13 16 18 18 15 14 14 14 15 15 16 17 19 20 22 24 27 29 28 28 30 32
32 33 33 34 34 35 35 37 38 39 39 39 39 39 36 34 35 38 42 44 44 42 40 38 37 38 40 41 39 37 37 34 34 36 34 33 35 33 30 31 32 32 32 32 33 34 29 27 29 28 26 26 28 28 26 23 23 23 23 22 22 22 20 18 16 14 13 15 19 19 16 15 18 19 18 19 19 20 22 23 23 25 27 28 28 28 30 34
32 33 33 34 34 34 35 35 36 36 36 36 35 32 30 33 38 40 40 40 40 38 37 37 39 41 41 40 36 35 34 33 35 36 35 34 30 26 28 33 33 33 33 33 33 32 29 28 30 28 26 27 29 29 27 23 21 22 24 24 23 22 19 17 17 18 16 15 18 19 16 16 19 20 19 20 21 24 26 26 26 27 28 29 31 32 35 38
32 32 32 32 32 33 33 34 35 36 35 33 30 30 33 39 42 41 41 40 39 37 37 40 42 40 38 35 32 32 34 34 36 35 32 29 25 26 33 34 33 34 34 33 31 30 30 30 28 27 28 28 29 28 26 23 22 25 28 27 26 25 21 18 18 19 18 16 16 17 18 19 21 21 19 20 23 25 27 28 30 31 31 32 33 34 36 39
31 31 31 32 32 33 34 35 34 32 31 32 36 39 42 43 42 40 39 38 37 37 38 40 39 36 35 32 29 31 34 34 34 30 27 26 28 34 36 32 34 36 32 30 31 31 31 29 26 28 30 29 29 28 26 24 25 27 28 28 28 25 22 19 18 18 18 16 15 16 19 21 22 22 21 20 22 25 27 28 31 33 34 34 34 35 37 40
30 30 30 31 32 32 32 32 31 29 28 32 37 40 39 38 37 37 36 35 36 37 37 37 35 33 32 30 31 34 34 32 30 27 28 31 33 35 34 32 35 34 30 31 33 32 30 28 27 30 31 30 30 29 26 26 27 27 27 27 28 25 21 19 17 17 18 16 14 15 20 21 20 22 23 24 25 26 27 29 32 34 35 35 35 37 41 44
29 30 30 30 30 29 29 29 31 33 34 35 34 33 31 32 33 32 33 34 35 35 35 34 33 32 30 31 34 35 32 29 28 29 32 33 32 33 34 34 34 33 31 32 33 30 29 30 31 32 32 32 32 31 29 29 29 28 26 26 26 23 20 19 18 16 16 15 14 16 21 21 21 23 23 24 26 26 27 30 33 34 35 36 38 42 44 46
28 28 29 28 27 28 29 31 33 35 37 37 35 31 29 29 30 30 31 33 33 33 33 32 32 32 32 34 35 32 30 30 31 32 33 30 30 32 33 31 32 33 32 31 32 31 31 32 32 32 33 33 31 30 31 30 29 28 26 26 24 21 19 18 18 17 16 15 15 16 19 23 24 25 24 24 26 27 29 31 34 35 37 40 43 45 45 45
28 26 26 27 29 31 33 36 37 36 34 33 34 34 32 32 32 32 33 33 33 33 32 32 33 33 33 34 33 32 32 32 32 31 29 28 29 31 30 30 32 32 31 32 32 31 32 34 33 33 34 33 31 31 31 29 28 26 25 23 21 18 17 16 16 17 16 15 16 18 20 25 27 27 27 27 27 29 33 35 37 39 39 39 41 44 46 45
32 31 28 28 31 33 33 33 33 32 30 30 31 32 33 33 34 34 34 34 33 33 33 34 34 34 34 34 33 32 32 31 30 29 27 27 29 29 28 29 31 31 32 32 31 32 34 33 32 33 34 32 31 30 29 28 26 23 21 21 19 16 15 16 15 16 17 17 19 20 22 26 28 28 29 29 29 33 37 38 38 39 40 40 42 45 48 49
36 36 35 33 33 32 30 29 29 30 31 31 31 32 33 34 34 35 34 34 35 35 35 35 35 35 34 34 32 31 30 29 28 28 28 27 28 28 29 29 30 30 31 31 31 32 33 31 31 34 33 31 30 29 28 27 24 20 20 21 20 16 16 17 15 15 18 20 21 23 24 27 28 29 29 29 30 34 37 38 40 41 43 45 47 49 51 53
38 39 40 37 34 34 33 31 30 31 32 32 32 32 33 33 34 34 34 34 35 35 35 35 36 35 34 33 33 32 31 29 27 26 26 26 26 27 28 28 29 29 29 30 31 31 31 30 32 33 31 29 29 27 25 23 20 20 23 22 19 18 18 19 18 17 20 22 24 25 25 26 27 28 27 28 31 34 36 40 44 46 47 49 50 53 55 57
Wind_Direction
230 231 231 231 232 232 232 231 231 231 232 233 234 235 236 238 240 241 242 244 247 249 252 255 257 258 260 262 265 269 273 279 283 288 291 294 297 300 302 304 305 307 309 312 315 317 320 322 323 323 323 324 327 330 331 333 334 336 338 340 341 341 338 336 334 335 332 316 295 273 259 263 268 263 257 251 250 255 257 256 252 247 254 260 257 258 259 257
230 230 231 231 231 232 232 232 231 231 232 233 234 235 236 238 239 241 242 244 246 248 251 253 256 258 260 262 265 269 273 278 282 286 289 292 295 298 300 302 304 306 308 311 313 316 319 321 322 323 322 325 327 328 331 333 336 340 342 343 343 341 339 338 337 336 332 324 313 287 259 256 262 270 272 263 254 252 254 259 263 263 267 267 265 267 266 265
229 230 230 231 231 231 231 232 232 232 232 233 233 234 235 237 239 240 242 243 246 248 250 252 254 256 259 262 265 268 272 276 280 284 287 290 293 296 299 301 303 305 308 311 313 316 319 320 323 324 323 325 326 328 330 333 338 342 344 344 342 340 340 341 342 340 336 332 312 288 271 258 260 270 272 271 262 252 252 264 280 292 292 284 275 272 265 261
229 229 230 230 231 231 231 231 232 232 232 233 233 234 235 236 238 240 241 243 245 247 249 251 253 255 257 261 264 267 271 275 278 281 285 288 291 294 297 299 302 304 307 310 313 316 318 321 322 323 324 326 327 327 328 332 338 343 345 346 343 340 341 345 348 345 336 329 306 292 289 274 270 272 267 270 263 247 242 256 296 310 297 293 290 281 269 262
229 229 229 230 230 231 231 231 231 232 232 233 234 234 235 236 238 239 241 243 244 247 249 251 253 254 256 259 262 266 269 272 276 280 283 286 289 292 294 298 300 303 305 308 311 314 317 320 321 323 324 325 325 325 328 333 337 341 344 346 345 341 344 353 355 344 338 333 313 302 304 293 277 271 271 275 264 254 243 244 299 314 297 303 303 290 283 274
229 229 229 229 230 230 231 231 231 232 232 233 234 234 235 236 237 239 241 242 244 246 249 251 253 254 255 258 261 264 267 271 274 278 281 284 287 290 293 296 298 301 304 307 310 313 316 319 321 322 322 323 324 326 330 333 336 340 343 348 348 343 347 358 353 342 341 335 322 308 309 295 272 259 267 269 253 251 156 201 214 277 298 308 302 295 291 283
229 229 229 229 229 230 230 231 231 232 232 233 234 234 235 236 237 239 240 242 243 246 248 250 252 254 255 257 260 262 266 270 273 276 279 282 285 288 291 294 297 300 303 306 309 311 314 317 319 320 321 322 324 327 330 333 336 338 343 348 351 346 346 352 346 342 341 331 325 310 308 299 273 251 258 259 236 208 142 140 148 155 261 278 270 283 287 283
229 229 229 229 229 229 230 230 231 231 232 233 234 234 235 236 237 238 240 242 243 245 247 250 251 253 255 257 259 262 265 268 272 275 277 281 283 287 290 293 296 299 302 305 307 310 313 316 318 319 321 322 324 328 330 333 336 338 342 347 354 352 346 352 356 353 349 336 330 320 314 310 289 259 254 226 210 217 164 159 164 164 189 209 208 229 243 262
229 229 229 229 229 229 229 230 230 231 231 232 234 234 235 236 237 238 240 241 243 245 246 249 251 253 254 256 258 261 264 267 270 273 276 279 282 285 289 292 295 298 301 304 306 309 312 316 318 319 321 322 325 328 329 332 334 337 343 348 357 358 349 353 0 359 355 345 340 333 325 317 297 265 248 225 220 230 177 164 178 186 199 201 198 210 215 236
229 229 229 229 229 229 229 230 230 230 231 232 233 234 235 236 237 238 239 241 242 244 246 248 250 252 253 255 258 260 262 265 268 272 275 278 281 284 287 290 293 297 300 303 306 308 311 315 317 319 321 322 324 327 329 330 332 338 345 349 353 356 350 339 338 341 339 336 335 329 326 321 299 267 248 232 208 206 178 172 187 197 202 208 214 218 219 231
228 229 229 229 229 229 229 230 230 230 231 232 233 234 235 235 237 238 239 240 242 243 245 248 250 252 253 255 257 259 260 264 268 270 273 276 280 283 286 289 292 295 299 302 305 307 311 314 316 318 320 321 323 326 327 328 333 338 343 347 349 350 347 327 322 326 315 309 317 320 324 321 303 278 250 235 200 198 199 191 190 197 203 208 215 221 223 231
227 228 229 229 229 229 229 229 230 230 230 231 232 233 234 235 236 238 239 240 242 243 245 247 249 251 253 254 256 258 261 264 266 269 272 276 279 282 285 288 291 294 298 301 304 307 310 313 315 317 319 321 322 324 327 329 334 338 340 346 348 347 347 339 332 329 317 311 310 311 317 310 287 257 204 220 215 211 218 207 196 202 211 214 215 218 222 230
227 227 228 229 229 229 229 229 229 230 230 231 231 232 233 234 235 237 239 240 241 242 244 246 248 251 252 254 256 257 259 261 264 268 272 275 278 281 284 287 290 293 297 300 303 306 309 311 314 317 319 321 321 324 327 330 335 339 341 344 345 346 347 346 341 328 321 317 308 307 307 304 281 228 193 209 225 225 227 218 208 207 211 218 223 224 225 231
228 226 226 228 229 229 229 229 229 230 230 230 231 232 233 234 235 236 238 239 241 242 244 245 248 250 251 253 255 256 258 261 265 268 271 274 277 280 283 286 289 292 296 299 302 306 308 310 313 317 319 320 321 324 327 331 335 336 338 341 344 347 343 338 340 329 319 317 311 312 302 303 289 244 218 214 221 229 232 224 213 210 213 221 229 233 233 236
228 227 226 227 228 229 228 229 229 230 230 230 231 231 232 233 234 235 237 238 240 241 243 245 247 249 251 253 254 256 258 261 264 266 269 272 275 279 282 285 288 291 295 298 302 305 307 309 312 316 318 320 322 324 328 333 334 334 337 341 341 344 339 334 341 333 320 316 302 294 288 291 286 265 235 211 206 222 235 232 219 216 222 227 231 235 235 237
227 227 226 226 227 228 228 228 229 230 230 230 231 231 232 233 234 235 236 238 239 240 242 244 246 248 250 251 253 255 257 260 263 265 268 271 274 278 281 284 287 290 294 297 301 305 307 309 311 315 317 319 322 324 328 332 333 335 338 338 336 339 338 335 341 334 321 321 297 275 280 284 280 270 241 212 211 228 237 242 235 226 228 232 232 233 235 237
227 227 227 226 226 227 228 228 229 229 230 230 230 231 232 232 233 234 235 237 238 240 241 243 245 247 249 251 253 255 257 260 262 264 266 269 273 277 280 283 286 290 293 297 301 304 306 308 311 314 316 319 322 324 329 331 333 336 337 335 334 336 338 336 341 338 326 325 306 282 288 288 282 265 241 219 217 229 241 248 247 236 233 234 234 234 237 239
226 226 226 226 225 226 227 228 228 229 229 230 230 231 231 232 233 234 235 236 237 239 240 242 244 246 248 251 252 254 256 258 259 262 266 270 273 276 279 282 286 289 293 296 300 303 305 308 311 313 316 319 323 327 331 332 333 336 334 333 333 334 338 337 338 339 331 322 310 301 300 294 285 264 253 235 220 226 247 259 257 246 240 236 234 235 238 239
226 226 226 226 225 225 226 228 228 229 229 230 230 230 231 232 233 233 234 235 236 238 239 241 243 245 247 249 251 253 255 256 259 264 267 269 271 274 277 281 285 289 292 296 298 301 305 308 311 313 316 319 323 328 330 331 333 334 331 330 331 333 337 337 335 334 329 321 312 305 300 289 264 252 263 253 228 226 249 266 267 258 249 241 238 238 240 242
226 225 225 225 225 225 226 227 228 228 229 229 230 230 231 232 233 234 235 236 236 237 238 240 243 244 247 250 251 253 254 257 261 264 265 267 269 272 276 281 285 288 292 295 297 301 305 309 312 313 316 319 323 328 330 330 331 331 329 328 330 332 334 336 334 330 325 323 319 307 296 281 264 232 250 258 236 228 253 267 267 267 261 249 244 244 243 245
225 225 225 225 225 225 225 226 227 228 229 229 230 230 231 232 233 233 234 235 236 237 238 240 242 244 247 248 249 250 253 257 259 260 263 266 269 272 276 280 284 287 290 294 297 301 305 309 311 312 315 319 324 327 328 328 328 328 327 327 328 330 333 334 332 327 321 321 316 301 295 288 279 224 219 260 253 242 263 269 268 275 271 257 252 252 251 251
225 225 225 225 225 225 225 225 227 228 229 229 230 230 231 231 232 232 232 233 234 235 236 237 239 242 244 246 247 250 253 255 257 259 263 266 269 272 276 279 282 286 289 293 296 300 304 307 309 310 313 317 323 325 325 325 325 326 325 325 327 329 331 333 330 324 318 316 304 286 289 292 273 226 213 255 257 241 257 269 271 277 273 266 265 268 265 262
225 224 224 224 224 224 225 225 226 227 228 229 230 230 230 231 231 232 233 234 234 236 236 237 238 240 243 245 247 250 252 254 256 260 262 265 268 271 275 278 281 284 288 291 295 299 302 304 307 309 311 316 321 323 323 323 324 324 323 323 326 326 328 334 333 325 321 321 304 277 284 275 225 223 215 233 248 243 254 269 278 275 266 267 272 276 272 268
225 224 224 224 224 224 224 224 225 226 228 229 229 230 231 231 231 232 233 233 234 236 237 238 239 240 242 244 246 248 251 253 256 258 261 264 267 270 274 276 280 283 286 290 294 297 300 303 306 308 310 316 320 320 320 321 321 321 320 320 323 326 329 335 337 330 328 329 314 287 300 202 188 209 193 230 293 310 291 281 296 297 282 290 298 296 284 273
225 224 224 223 223 224 224 224 225 226 227 228 229 230 231 231 231 232 232 233 233 234 235 237 238 240 241 243 245 247 249 252 254 257 260 264 266 270 273 276 279 282 285 289 292 295 298 302 305 306 309 316 318 317 317 318 319 317 316 319 323 327 331 337 340 339 344 360 42 69 96 148 153 160 107 37 356 357 336 317 322 318 314 319 322 322 310 290
225 224 224 223 223 223 224 224 224 225 226 228 229 230 231 231 231 232 232 233 233 234 235 236 238 239 241 243 245 247 249 251 254 258 261 263 265 269 272 275 278 281 284 287 290 293 297 300 301 303 307 313 314 314 315 316 316 315 315 320 324 328 333 339 342 348 18 51 81 84 138 144 133 112 65 21 343 343 335 336 337 323 320 320 323 331 325 311
225 224 224 223 223 223 223 224 224 224 225 227 228 229 230 231 231 232 232 232 233 234 235 236 238 239 241 243 245 247 249 252 255 257 259 261 265 268 271 274 276 279 283 285 288 292 295 298 299 301 306 310 312 312 312 313 314 313 315 320 325 329 333 339 343 360 55 84 95 95 124 139 139 130 54 89 70 15 334 347 3 345 327 323 334 347 343 334
225 224 224 223 223 222 223 223 223 223 224 226 227 228 230 230 231 232 232 232 233 234 234 236 238 239 241 243 245 247 249 251 252 254 259 262 265 267 269 272 275 278 281 284 288 290 293 296 297 301 305 308 309 309 309 312 312 311 314 320 325 328 333 340 347 10 59 91 102 109 128 133 132 130 114 104 85 56 6 354 10 4 343 339 350 357 355 349
225 224 223 223 223 222 222 222 223 223 223 225 226 227 229 230 231 231 232 232 232 233 234 235 237 239 240 242 244 246 248 249 252 256 260 262 263 265 268 271 274 277 280 283 286 289 291 294 296 299 303 305 306 306 307 309 308 309 313 319 324 328 334 343 358 40 61 85 103 116 128 131 121 107 89 74 68 64 50 25 18 10 4 1 1 9 7 2
225 224 222 222 223 222 222 222 222 222 222 223 225 226 228 229 230 231 232 232 232 233 234 235 237 239 241 243 244 245 247 250 254 257 258 259 262 266 268 271 274 277 280 282 285 288 290 292 294 297 300 303 303 303 304 306 305 307 313 319 323 328 335 343 348 94 77 92 112 115 122 128 113 81 65 53 46 51 55 48 28 15 18 16 10 17 14 9
225 224 222 222 222 222 221 221 221 221 221 222 223 225 226 228 229 230 232 232 230 232 234 234 236 238 240 242 244 246 248 251 253 255 257 261 263 266 268 271 274 276 279 281 283 286 288 289 292 296 299 301 301 301 303 304 304 306 312 319 323 328 338 343 318 191 144 120 123 122 119 113 100 80 67 56 42 36 35 28 16 16 23 19 10 16 12 5
224 223 222 221 221 221 220 220 220 220 220 221 222 224 225 227 228 230 232 231 230 232 234 234 235 237 239 241 243 246 249 251 253 255 259 261 263 266 268 271 273 275 277 279 281 283 285 288 291 294 296 298 298 299 302 302 302 306 313 319 322 326 335 342 269 186 145 133 130 130 122 105 96 95 83 77 69 39 14 15 17 18 25 18 4 8 8 360
223 222 221 220 219 220 219 219 219 219 220 220 221 222 225 226 228 230 231 230 229 232 233 233 234 236 239 241 243 246 248 250 252 255 258 261 263 265 267 269 271 273 274 276 279 281 283 287 289 290 293 295 295 297 300 300 301 306 312 317 320 322 329 344 202 191 153 143 139 136 131 116 106 104 98 98 85 44 343 347 11 12 17 13 357 355 359 356
221 221 220 219 218 218 218 217 218 218 218 219 220 221 223 225 227 229 229 229 228 231 232 232 235 237 239 241 244 246 248 250 252 255 257 260 262 263 265 267 269 270 272 275 276 279 282 284 285 288 291 292 293 295 298 297 299 306 311 314 318 321 326 9 167 187 168 161 159 149 140 134 128 112 102 102 96 87 287 304 335 346 354 356 347 347 353 352
220 220 219 217 216 216 216 216 216 216 217 217 218 220 221 223 226 226 227 228 228 230 231 231 233 235 237 240 243 245 247 249 252 254 256 258 260 262 264 265 267 269 271 272 275 277 278 279 281 287 289 289 291 295 295 295 299 307 312 312 316 320 320 310 169 181 183 185 177 165 163 163 160 147 113 89 75 76 275 290 306 324 340 340 335 338 350 354
219 218 217 216 215 215 214 214 215 215 215 216 217 218 219 222 223 223 224 225 225 228 229 230 232 234 237 240 242 244 246 248 250 252 253 255 257 259 261 263 264 267 268 270 273 273 272 274 277 279 281 283 288 291 291 293 300 310 314 311 311 313 310 281 189 183 192 198 186 180 185 176 163 162 170 175 189 240 276 289 312 341 346 338 328 327 336 341
218 217 216 215 214 213 213 213 213 214 214 215 215 217 219 222 223 224 226 226 227 229 229 230 233 235 237 239 240 242 244 246 247 249 251 253 255 257 259 261 262 264 266 269 268 267 270 272 272 271 276 281 284 285 288 292 299 310 313 309 309 310 302 260 202 189 198 205 195 195 193 174 164 169 184 201 205 206 227 266 306 308 306 305 300 302 307 299
216 215 214 213 213 212 212 212 212 213 213 213 214 217 220 222 223 226 227 227 230 232 231 231 233 234 236 238 239 241 243 244 246 248 250 252 253 255 256 258 260 262 265 265 264 265 268 269 270 272 277 279 279 281 285 291 301 308 309 308 311 313 303 248 209 193 200 210 203 203 199 179 176 182 189 208 218 222 228 239 256 256 258 267 269 274 279 268
215 214 213 212 212 211 211 210 210 211 211 212 214 217 220 220 221 223 223 223 225 227 226 228 230 231 233 236 237 240 242 243 245 248 249 251 253 254 256 257 259 260 260 259 260 263 264 266 270 273 276 275 274 278 282 290 299 303 305 310 313 314 308 258 219 204 207 215 212 209 202 190 192 198 204 212 216 228 242 248 247 243 244 251 254 259 265 259
213 212 211 211 210 210 209 208 208 209 210 212 214 217 219 217 216 214 213 217 221 222 221 224 226 228 232 235 236 239 241 243 245 247 248 250 252 252 252 253 255 256 255 255 258 260 262 265 269 272 276 277 276 279 283 287 291 294 304 312 312 310 308 289 250 225 213 214 219 218 206 201 204 204 210 213 209 221 239 246 245 246 253 261 261 261 263 261
212 211 210 209 209 207 206 205 206 208 209 210 212 215 216 214 214 211 209 213 218 221 222 222 223 226 230 233 233 235 238 240 241 244 247 247 247 247 250 252 253 253 252 253 255 258 262 266 269 272 276 277 277 280 282 284 289 295 301 304 301 296 294 293 279 244 215 212 221 224 216 217 224 221 223 224 217 222 232 237 243 252 262 269 272 270 267 263
210 210 208 208 207 205 203 203 204 207 208 208 209 212 211 210 213 215 215 216 218 220 220 220 221 222 224 228 230 233 237 238 240 242 244 242 244 248 251 250 249 248 249 250 252 257 263 265 267 271 275 277 279 280 281 286 292 298 300 300 296 288 284 287 283 264 238 220 222 227 225 226 235 241 244 238 230 233 240 244 249 255 262 268 270 271 270 267
208 208 206 205 204 202 201 201 202 204 205 206 207 207 206 206 209 212 215 217 219 219 216 216 220 222 223 226 227 230 235 237 239 241 240 242 247 251 248 244 244 245 247 249 253 259 263 262 266 272 274 275 279 281 288 297 301 301 302 301 298 292 287 282 274 265 255 233 223 230 234 237 244 251 254 248 244 247 252 256 260 263 266 269 269 271 273 273
206 206 204 203 202 200 198 198 200 201 200 199 198 199 202 207 209 209 209 211 213 214 213 215 219 221 225 228 229 231 233 233 236 239 241 245 245 241 239 239 242 245 247 250 255 259 261 262 267 273 273 274 278 282 290 299 301 301 301 299 296 294 291 283 270 262 258 245 231 234 238 241 249 255 257 256 258 261 263 266 272 275 276 275 274 275 278 278
204 203 201 199 198 198 196 195 196 197 195 193 193 196 201 204 206 207 207 208 209 211 213 217 220 221 224 226 228 231 234 235 238 242 243 242 237 237 240 241 243 247 249 252 255 255 259 266 270 270 272 275 278 282 285 288 290 292 295 294 293 292 291 286 275 265 259 248 234 236 241 244 254 262 266 267 268 269 271 273 276 279 279 279 278 279 280 282
201 200 199 197 196 195 194 192 190 188 191 196 200 202 202 202 204 206 206 206 207 209 213 216 219 221 222 223 225 229 232 234 238 240 239 236 235 238 241 241 243 248 248 249 253 256 262 268 268 267 271 274 278 282 286 287 288 290 292 292 291 292 291 285 275 267 261 249 236 239 244 247 257 266 273 278 277 277 278 275 272 273 276 279 281 283 285 286
197 196 195 195 193 190 188 188 186 185 187 194 201 205 205 204 203 204 206 206 208 209 212 214 215 218 220 222 226 229 231 234 235 236 236 236 236 239 241 241 244 248 247 249 255 258 261 264 264 267 272 275 278 284 288 290 292 293 293 291 290 292 289 281 275 270 263 252 245 245 248 253 257 259 266 276 277 279 282 278 273 272 276 280 283 284 285 286
193 193 192 188 184 183 183 183 186 190 191 191 191 195 200 203 203 203 204 206 208 209 211 213 215 216 218 222 227 230 232 233 233 235 238 238 238 241 244 245 246 248 249 251 254 257 259 262 265 268 272 276 281 285 288 290 292 294 292 291 293 294 288 280 275 271 264 257 254 251 253 259 259 255 260 270 272 272 272 271 272 275 277 280 281 280 278 277
185 187 187 182 177 180 184 186 187 190 193 192 188 187 191 196 199 201 203 204 205 207 209 211 215 217 219 223 227 229 230 232 234 238 241 240 239 243 245 244 246 248 250 251 253 256 259 261 265 270 273 278 283 284 286 290 291 291 291 293 294 294 289 283 277 274 273 269 265 261 259 261 259 256 259 266 269 268 267 268 271 274 275 278 279 277 274 274
178 177 178 179 178 181 186 189 188 185 188 192 191 190 190 192 196 200 201 202 204 206 208 211 214 218 221 225 227 230 232 235 238 241 242 241 240 242 243 243 244 247 248 250 253 255 258 262 268 272 275 279 282 283 287 289 288 289 293 291 284 281 281 278 276 279 281 277 271 266 265 266 264 262 262 266 269 270 271 272 273 273 273 272 273 276 277 278
176 172 172 174 177 178 181 186 186 184 185 189 191 192 192 193 197 200 200 201 203 205 208 212 216 218 222 226 228 231 234 236 237 239 240 242 241 242 244 244 245 247 250 252 254 256 260 267 271 272 276 280 282 283 285 285 288 292 289 279 270 269 274 274 274 278 278 276 273 271 272 274 274 274 273 272 272 274 276 277 276 275 275 274 274 277 278 278
176 173 171 171 173 174 175 179 184 187 187 187 190 193 194 195 198 200 201 203 205 207 209 213 217 220 223 226 228 228 232 236 240 241 242 244 244 245 247 247 249 251 253 255 257 260 264 269 271 273 279 282 282 282 282 284 290 289 279 272 268 267 271 272 274 276 276 278 279 277 277 276 277 279 278 273 269 271 274 276 278 277 277 277 278 277 277 278
Height
10972 10975 10978 10981 10984 10987 10989 10992 10994 10996 10998 11000 11002 11004 11005 11007 11008 11010 11011 11013 11014 11015 11016 11017 11018 11020 11021 11021 11022 11022 11022 11022 11023 11023 11023 11024 11024 11024 11025 11025 11025 11025 11025 11025 11024 11024 11023 11023 11022 11022 11021 11020 11020 11019 11018 11017 11017 11015 11013 11011 11009 11007 11005 11003 11002 11001 11001 10999 10996 10996 10997 10994 10993 10993 10993 10993 10994 10994 10994 10994 10997 10999 10999 10999 10999 10999 10999 10999
10967 10970 10974 10977 10980 10983 10986 10988 10991 10993 10995 10997 10999 11001 11003 11004 11006 11007 11009 11010 11012 11013 11014 11015 11016 11018 11019 11019 11020 11021 11021 11021 11021 11021 11022 11022 11023 11023 11023 11023 11023 11023 11023 11023 11023 11022 11022 11021 11021 11020 11019 11018 11018 11017 11016 11015 11014 11013 11011 11009 11007 11004 11002 11001 10999 10999 10998 10997 10995 10994 10994 10993 10992 10992 10992 10991 10992 10993 10994 10994 10995 10997 10997 10996 10996 10996 10997 10996
10962 10966 10969 10972 10976 10979 10982 10984 10987 10989 10991 10994 10996 10998 11000 11002 11003 11005 11007 11008 11009 11010 11012 11013 11014 11016 11017 11018 11019 11019 11020 11020 11020 11020 11020 11021 11021 11021 11022 11022 11022 11022 11022 11021 11021 11020 11020 11019 11019 11018 11017 11016 11016 11014 11014 11013 11012 11011 11009 11006 11004 11002 11000 10999 10997 10996 10996 10995 10993 10991 10991 10991 10991 10991 10991 10990 10991 10992 10994 10995 10995 10996 10994 10994 10995 10996 10995 10994
10957 10961 10964 10968 10971 10974 10978 10980 10983 10985 10988 10990 10992 10995 10997 10999 11000 11002 11004 11006 11007 11008 11010 11011 11012 11014 11016 11016 11017 11018 11018 11018 11018 11018 11019 11019 11019 11020 11020 11020 11020 11020 11020 11020 11019 11018 11018 11017 11017 11016 11015 11014 11013 11012 11012 11011 11010 11009 11008 11005 11001 10999 10999 10997 10996 10994 10994 10993 10991 10989 10989 10990 10989 10989 10990 10990 10990 10992 10995 10996 10997 10996 10992 10993 10995 10994 10993 10991
10953 10956 10960 10963 10967 10970 10973 10976 10979 10981 10984 10986 10989 10992 10994 10996 10998 10999 11001 11003 11005 11006 11007 11009 11010 11012 11014 11014 11015 11017 11017 11017 11017 11017 11017 11017 11018 11018 11018 11019 11018 11018 11018 11018 11017 11017 11016 11015 11014 11014 11013 11012 11012 11011 11009 11008 11007 11007 11006 11004 10999 10996 10997 10996 10994 10992 10991 10991 10990 10988 10987 10988 10988 10988 10987 10988 10990 10992 10995 10997 11001 10999 10991 10991 10994 10991 10990 10988
10948 10951 10955 10958 10962 10965 10969 10972 10975 10977 10980 10982 10985 10988 10991 10993 10995 10997 10999 11001 11002 11004 11005 11006 11008 11010 11012 11013 11014 11015 11015 11015 11015 11015 11015 11015 11016 11016 11017 11017 11016 11016 11016 11016 11015 11015 11014 11014 11013 11012 11012 11011 11010 11008 11007 11005 11005 11005 11004 11003 10998 10994 10995 10995 10993 10990 10989 10989 10988 10987 10986 10986 10986 10986 10986 10987 10989 10991 10993 10996 11001 11001 10993 10991 10992 10989 10987 10985
10944 10947 10950 10954 10957 10961 10964 10968 10971 10973 10976 10978 10981 10984 10987 10990 10992 10994 10996 10998 11000 11001 11003 11004 11005 11007 11010 11011 11012 11013 11014 11014 11014 11014 11013 11014 11014 11015 11015 11015 11015 11014 11014 11014 11013 11013 11013 11012 11011 11011 11010 11008 11007 11006 11005 11004 11003 11002 11002 11001 10998 10993 10993 10994 10992 10990 10989 10988 10987 10986 10986 10984 10984 10984 10985 10986 10987 10988 10989 10989 10991 10994 10992 10991 10991 10987 10986 10982
10939 10942 10946 10949 10952 10956 10960 10963 10966 10969 10972 10974 10977 10980 10983 10986 10988 10990 10993 10995 10997 10999 11000 11001 11003 11005 11007 11009 11010 11011 11012 11012 11012 11012 11012 11012 11012 11013 11013 11013 11013 11013 11012 11012 11012 11011 11011 11010 11009 11008 11007 11006 11005 11004 11003 11002 11001 11001 11000 10999 10997 10992 10990 10992 10991 10989 10989 10987 10986 10985 10984 10983 10983 10983 10984 10986 10985 10985 10986 10985 10984 10984 10982 10982 10982 10980 10979 10975
10934 10937 10941 10945 10948 10951 10955 10958 10962 10965 10968 10970 10973 10977 10980 10982 10984 10987 10989 10992 10994 10996 10997 10999 11000 11002 11005 11007 11008 11010 11011 11010 11010 11010 11010 11010 11011 11011 11012 11012 11011 11011 11011 11010 11010 11009 11009 11008 11007 11006 11005 11003 11003 11002 11001 11000 11000 10999 10998 10998 10997 10993 10989 10989 10990 10988 10987 10986 10984 10983 10982 10982 10982 10983 10984 10984 10984 10984 10985 10985 10984 10982 10978 10976 10975 10972 10971 10968
10928 10932 10936 10940 10943 10947 10950 10953 10957 10960 10964 10966 10969 10973 10976 10978 10981 10983 10986 10988 10991 10993 10995 10996 10998 11000 11002 11004 11007 11008 11008 11008 11008 11008 11008 11008 11009 11009 11010 11010 11010 11010 11009 11009 11008 11008 11007 11006 11005 11004 11003 11001 11001 11000 10999 10998 10997 10997 10996 10996 10996 10993 10989 10987 10987 10986 10984 10984 10983 10982 10981 10981 10981 10982 10982 10983 10983 10984 10984 10984 10984 10982 10979 10977 10975 10973 10972 10969
10923 10927 10931 10935 10939 10942 10945 10949 10952 10956 10960 10963 10966 10969 10972 10975 10977 10979 10982 10985 10988 10990 10992 10994 10995 10997 10999 11002 11005 11005 11005 11006 11006 11006 11006 11006 11007 11007 11008 11008 11008 11008 11008 11007 11006 11006 11005 11004 11003 11002 11001 11000 10999 10998 10997 10996 10995 10995 10994 10993 10993 10993 10990 10986 10985 10985 10983 10982 10982 10981 10979 10979 10979 10980 10980 10981 10982 10983 10982 10981 10981 10980 10979 10977 10976 10975 10974 10972
10918 10922 10926 10930 10934 10937 10941 10944 10948 10952 10955 10958 10962 10965 10968 10971 10974 10976 10978 10982 10985 10987 10989 10991 10992 10994 10997 11000 11002 11002 11003 11004 11004 11004 11004 11004 11005 11005 11006 11006 11006 11006 11006 11006 11005 11004 11003 11002 11001 11000 10999 10997 10997 10996 10994 10993 10993 10992 10991 10990 10990 10990 10989 10986 10984 10984 10982 10980 10980 10979 10978 10977 10976 10977 10978 10979 10980 10981 10980 10979 10978 10978 10978 10976 10975 10974 10973 10973
10912 10916 10921 10924 10928 10933 10936 10939 10943 10947 10950 10954 10958 10961 10964 10967 10970 10972 10975 10978 10981 10984 10986 10988 10990 10991 10994 10997 10999 11000 11001 11001 11001 11002 11002 11003 11003 11003 11003 11004 11004 11004 11004 11004 11003 11002 11001 11000 10999 10998 10997 10995 10994 10994 10992 10991 10990 10990 10989 10988 10987 10986 10984 10983 10984 10982 10980 10978 10978 10977 10976 10974 10973 10974 10976 10977 10978 10977 10977 10977 10976 10975 10975 10974 10973 10972 10972 10972
10906 10911 10915 10919 10923 10927 10931 10935 10938 10942 10946 10950 10953 10957 10960 10963 10966 10969 10972 10975 10978 10981 10983 10985 10987 10989 10992 10994 10995 10997 10998 10999 11000 11000 11000 11001 11001 11001 11001 11001 11002 11002 11002 11002 11001 11001 10999 10998 10997 10996 10995 10993 10992 10991 10990 10989 10987 10987 10987 10986 10985 10984 10981 10980 10982 10980 10976 10976 10975 10974 10973 10971 10970 10971 10972 10974 10976 10974 10972 10973 10973 10972 10972 10972 10971 10971 10970 10970
10900 10905 10910 10914 10918 10922 10926 10930 10933 10937 10942 10945 10949 10952 10956 10959 10962 10965 10968 10971 10974 10977 10980 10982 10984 10986 10989 10991 10992 10995 10996 10997 10998 10998 10998 10999 10999 10999 10999 10999 11000 11000 11000 11000 11000 10999 10997 10996 10996 10995 10993 10991 10990 10988 10988 10987 10986 10984 10982 10981 10980 10981 10979 10977 10978 10977 10974 10973 10972 10971 10971 10969 10968 10968 10969 10971 10972 10971 10969 10969 10970 10970 10970 10969 10969 10968 10967 10967
10894 10899 10904 10908 10913 10917 10921 10925 10928 10933 10937 10941 10944 10948 10951 10955 10958 10961 10965 10968 10971 10974 10977 10979 10981 10984 10986 10986 10989 10992 10994 10995 10995 10995 10997 10997 10997 10997 10997 10997 10998 10998 10998 10999 10998 10997 10995 10993 10993 10993 10990 10989 10988 10987 10986 10985 10983 10981 10978 10977 10976 10977 10977 10975 10975 10974 10971 10971 10970 10969 10970 10968 10967 10966 10967 10968 10969 10968 10967 10966 10966 10966 10967 10966 10966 10965 10964 10964
10889 10893 10898 10903 10907 10912 10915 10919 10924 10928 10932 10936 10940 10943 10947 10950 10954 10957 10961 10964 10967 10970 10973 10976 10978 10981 10981 10983 10988 10990 10991 10993 10992 10993 10994 10995 10996 10996 10995 10995 10996 10996 10996 10996 10996 10995 10993 10991 10991 10990 10988 10987 10986 10984 10983 10981 10979 10978 10976 10974 10973 10973 10973 10971 10971 10971 10968 10967 10967 10967 10967 10967 10967 10965 10963 10965 10966 10965 10964 10964 10963 10963 10963 10963 10963 10962 10961 10962
10883 10888 10892 10897 10902 10906 10910 10914 10919 10923 10928 10932 10936 10939 10942 10945 10949 10953 10957 10961 10964 10967 10971 10973 10975 10977 10978 10982 10986 10987 10989 10989 10989 10990 10992 10994 10994 10993 10993 10993 10994 10994 10993 10994 10994 10993 10991 10989 10988 10987 10985 10984 10983 10981 10979 10978 10976 10975 10973 10971 10970 10970 10970 10968 10967 10968 10966 10964 10963 10964 10964 10964 10967 10964 10960 10961 10963 10963 10962 10961 10960 10960 10961 10961 10960 10960 10959 10959
10878 10882 10887 10892 10896 10901 10905 10909 10914 10919 10923 10927 10931 10934 10937 10941 10945 10949 10953 10957 10960 10964 10967 10969 10971 10974 10975 10979 10983 10984 10985 10985 10986 10990 10991 10991 10992 10991 10991 10991 10992 10992 10991 10991 10991 10991 10989 10987 10986 10983 10982 10982 10982 10980 10978 10977 10975 10974 10971 10970 10968 10967 10967 10967 10964 10964 10963 10961 10960 10960 10959 10960 10964 10963 10958 10957 10959 10961 10960 10958 10956 10956 10958 10959 10958 10958 10958 10958
10873 10877 10881 10886 10891 10896 10900 10904 10909 10913 10918 10922 10926 10929 10934 10938 10941 10946 10951 10954 10958 10961 10964 10966 10969 10972 10972 10977 10981 10981 10981 10983 10986 10988 10987 10988 10989 10989 10989 10990 10990 10989 10989 10989 10988 10988 10987 10985 10983 10981 10980 10980 10979 10978 10977 10976 10975 10973 10970 10968 10967 10965 10964 10964 10963 10962 10960 10958 10958 10956 10955 10957 10959 10960 10957 10955 10956 10959 10959 10957 10953 10952 10955 10957 10956 10956 10956 10956
10868 10872 10876 10881 10886 10891 10895 10899 10904 10908 10913 10917 10921 10926 10931 10934 10939 10944 10947 10950 10955 10958 10961 10964 10967 10969 10970 10975 10977 10976 10978 10982 10984 10984 10984 10985 10987 10987 10988 10988 10988 10987 10987 10987 10986 10986 10985 10984 10981 10979 10979 10979 10978 10977 10976 10975 10974 10972 10970 10967 10965 10964 10963 10962 10961 10959 10958 10956 10956 10954 10952 10953 10955 10956 10956 10954 10955 10957 10957 10955 10953 10952 10952 10953 10953 10953 10954 10955
10863 10867 10871 10876 10881 10885 10890 10895 10899 10903 10908 10912 10917 10922 10926 10930 10934 10938 10940 10945 10950 10952 10956 10960 10963 10965 10967 10971 10973 10973 10977 10979 10980 10981 10982 10983 10984 10985 10986 10986 10985 10985 10985 10985 10984 10984 10983 10982 10980 10979 10978 10978 10978 10976 10975 10974 10972 10970 10968 10966 10964 10963 10963 10963 10959 10956 10955 10954 10953 10951 10950 10950 10951 10952 10954 10954 10953 10954 10954 10952 10952 10951 10949 10949 10950 10950 10951 10952
10859 10863 10867 10871 10876 10880 10885 10890 10894 10898 10903 10908 10913 10918 10921 10925 10930 10933 10937 10943 10945 10948 10953 10956 10959 10962 10964 10968 10970 10972 10974 10976 10977 10979 10979 10980 10982 10983 10983 10983 10983 10983 10983 10983 10983 10982 10982 10981 10979 10977 10977 10978 10977 10975 10974 10972 10970 10968 10965 10964 10963 10962 10962 10963 10959 10954 10952 10950 10948 10948 10948 10948 10948 10949 10951 10952 10951 10951 10951 10950 10951 10951 10949 10949 10950 10951 10950 10950
10854 10858 10862 10866 10871 10876 10880 10885 10889 10894 10898 10903 10909 10912 10916 10922 10926 10929 10934 10939 10942 10946 10950 10954 10957 10959 10962 10965 10967 10968 10971 10973 10975 10975 10976 10978 10980 10980 10981 10981 10981 10981 10981 10981 10981 10981 10980 10979 10978 10976 10975 10976 10975 10973 10973 10972 10969 10967 10964 10963 10963 10962 10960 10959 10958 10954 10950 10948 10946 10947 10947 10947 10947 10947 10948 10950 10949 10949 10949 10949 10950 10950 10951 10951 10950 10950 10949 10948
10850 10854 10858 10862 10866 10871 10876 10880 10885 10889 10894 10899 10903 10907 10912 10918 10921 10925 10930 10934 10939 10942 10946 10950 10953 10956 10959 10961 10963 10966 10969 10970 10971 10972 10974 10977 10977 10978 10978 10979 10979 10978 10979 10979 10979 10979 10979 10977 10976 10974 10974 10975 10974 10972 10971 10970 10968 10966 10964 10963 10962 10960 10959 10957 10955 10952 10949 10947 10946 10946 10946 10946 10946 10947 10948 10948 10947 10947 10948 10949 10949 10950 10951 10949 10948 10948 10948 10949
10846 10850 10854 10858 10862 10867 10871 10876 10881 10885 10890 10894 10899 10903 10908 10913 10917 10921 10926 10930 10935 10939 10943 10946 10949 10952 10955 10957 10960 10963 10965 10966 10969 10971 10972 10974 10975 10975 10976 10977 10977 10976 10977 10977 10976 10977 10977 10976 10974 10973 10974 10974 10973 10970 10968 10968 10966 10963 10961 10961 10961 10959 10958 10956 10954 10951 10949 10947 10946 10945 10945 10945 10946 10946 10947 10947 10946 10946 10948 10949 10949 10948 10949 10947 10946 10946 10946 10946
10842 10846 10849 10854 10858 10862 10866 10872 10877 10882 10886 10890 10894 10899 10904 10908 10913 10917 10922 10926 10930 10935 10940 10943 10946 10949 10952 10954 10957 10960 10962 10966 10968 10967 10967 10970 10972 10973 10973 10974 10974 10974 10974 10974 10974 10975 10975 10974 10972 10971 10972 10973 10971 10969 10967 10965 10964 10961 10959 10959 10959 10958 10956 10955 10953 10951 10949 10947 10946 10945 10944 10945 10945 10945 10946 10947 10947 10947 10947 10947 10946 10946 10947 10946 10945 10943 10943 10942
10838 10842 10846 10850 10854 10858 10863 10868 10872 10877 10881 10886 10890 10895 10899 10904 10908 10912 10918 10922 10926 10933 10938 10940 10942 10946 10949 10951 10953 10957 10961 10962 10962 10962 10965 10969 10970 10970 10971 10971 10971 10972 10972 10972 10972 10972 10973 10972 10970 10969 10970 10970 10969 10967 10965 10964 10961 10959 10958 10958 10957 10957 10955 10954 10952 10950 10949 10947 10946 10946 10945 10945 10945 10945 10945 10946 10946 10946 10945 10944 10944 10945 10945 10945 10943 10940 10940 10940
10834 10838 10842 10846 10849 10854 10859 10863 10868 10873 10878 10882 10886 10890 10895 10899 10903 10909 10913 10917 10923 10930 10934 10936 10939 10943 10945 10947 10951 10956 10957 10955 10957 10962 10964 10965 10965 10966 10968 10968 10968 10969 10969 10970 10970 10969 10970 10969 10968 10968 10968 10968 10967 10965 10964 10962 10960 10958 10957 10957 10956 10955 10954 10952 10951 10950 10948 10947 10946 10945 10945 10945 10945 10945 10945 10944 10945 10946 10945 10944 10944 10945 10944 10943 10941 10939 10943 10944
10830 10834 10838 10842 10845 10850 10855 10859 10864 10869 10874 10878 10882 10886 10891 10895 10900 10905 10908 10913 10922 10927 10929 10933 10936 10940 10942 10944 10949 10952 10950 10952 10958 10960 10959 10960 10962 10964 10965 10965 10966 10967 10967 10967 10967 10966 10967 10966 10965 10965 10966 10966 10965 10963 10962 10960 10958 10956 10956 10955 10954 10954 10953 10952 10950 10949 10948 10947 10946 10945 10945 10945 10945 10945 10944 10944 10945 10945 10945 10944 10944 10944 10943 10941 10939 10940 10947 10948
10827 10830 10834 10838 10842 10846 10850 10855 10860 10865 10869 10873 10878 10882 10887 10891 10896 10900 10904 10911 10920 10923 10925 10929 10933 10936 10939 10942 10945 10946 10947 10952 10956 10954 10955 10958 10960 10961 10962 10962 10963 10964 10964 10964 10964 10964 10964 10963 10963 10963 10963 10963 10962 10960 10960 10958 10956 10955 10955 10954 10952 10952 10952 10951 10949 10948 10948 10947 10946 10945 10944 10944 10944 10944 10944 10944 10945 10944 10944 10943 10942 10943 10942 10940 10940 10942 10947 10947
10823 10827 10831 10834 10838 10842 10847 10852 10857 10861 10865 10870 10875 10879 10883 10888 10893 10897 10902 10909 10917 10918 10920 10925 10929 10932 10935 10938 10941 10942 10946 10951 10951 10950 10953 10956 10956 10958 10959 10959 10960 10961 10961 10961 10961 10960 10960 10961 10961 10961 10961 10960 10959 10958 10957 10956 10955 10953 10953 10952 10951 10950 10950 10949 10948 10947 10947 10946 10945 10944 10943 10943 10943 10943 10943 10943 10944 10943 10941 10940 10939 10941 10941 10940 10940 10942 10944 10944
10820 10823 10827 10831 10835 10839 10844 10849 10853 10857 10862 10866 10872 10876 10881 10886 10891 10895 10899 10906 10912 10911 10914 10921 10926 10928 10931 10934 10937 10940 10944 10947 10946 10948 10951 10952 10953 10955 10955 10956 10957 10957 10957 10958 10958 10957 10958 10958 10958 10958 10959 10958 10957 10956 10955 10953 10953 10952 10951 10950 10949 10948 10947 10947 10947 10946 10946 10945 10944 10943 10943 10942 10942 10941 10942 10942 10943 10942 10939 10937 10937 10938 10938 10938 10939 10939 10939 10940
10817 10820 10824 10828 10833 10837 10841 10845 10849 10853 10858 10864 10869 10874 10879 10885 10888 10890 10895 10901 10905 10905 10911 10920 10923 10925 10929 10932 10934 10937 10941 10943 10944 10946 10948 10949 10950 10951 10952 10953 10953 10953 10954 10955 10955 10955 10955 10956 10956 10956 10957 10956 10954 10953 10953 10951 10950 10951 10950 10948 10947 10946 10945 10945 10945 10945 10945 10944 10943 10943 10942 10941 10940 10940 10940 10940 10942 10942 10939 10936 10935 10937 10938 10938 10937 10937 10937 10938
10814 10818 10822 10826 10830 10834 10838 10842 10846 10850 10856 10861 10866 10871 10878 10881 10882 10886 10890 10894 10899 10903 10909 10916 10918 10921 10925 10928 10931 10935 10937 10939 10941 10943 10945 10945 10946 10947 10949 10949 10949 10950 10952 10952 10952 10953 10953 10953 10954 10954 10954 10954 10952 10951 10950 10948 10947 10949 10948 10946 10946 10945 10944 10944 10944 10944 10943 10943 10942 10941 10940 10940 10939 10939 10939 10939 10941 10942 10940 10936 10934 10936 10937 10936 10935 10934 10935 10935
10812 10816 10819 10823 10827 10831 10835 10839 10843 10848 10853 10858 10864 10870 10873 10872 10873 10878 10882 10887 10895 10900 10905 10911 10914 10918 10922 10925 10929 10931 10933 10936 10938 10939 10941 10941 10942 10944 10945 10945 10945 10947 10948 10949 10950 10950 10949 10950 10952 10951 10952 10952 10951 10949 10948 10946 10945 10946 10945 10944 10943 10943 10942 10942 10942 10942 10942 10942 10940 10939 10938 10937 10937 10938 10938 10938 10939 10940 10938 10933 10932 10935 10937 10936 10933 10930 10929 10932
10810 10813 10817 10821 10825 10828 10832 10836 10841 10846 10851 10856 10862 10865 10864 10863 10869 10876 10882 10890 10897 10898 10903 10909 10912 10916 10919 10922 10925 10927 10929 10932 10934 10934 10936 10938 10939 10941 10941 10942 10942 10943 10945 10947 10946 10945 10946 10948 10949 10949 10949 10949 10949 10947 10946 10944 10943 10944 10943 10941 10940 10940 10940 10940 10941 10941 10940 10940 10938 10936 10935 10936 10936 10935 10935 10934 10933 10934 10931 10927 10926 10928 10932 10933 10931 10926 10923 10925
10808 10811 10815 10818 10822 10826 10830 10834 10839 10844 10849 10854 10857 10858 10858 10863 10872 10879 10886 10894 10896 10897 10903 10907 10909 10913 10915 10917 10921 10923 10925 10928 10929 10930 10933 10935 10936 10937 10938 10939 10939 10940 10943 10943 10942 10942 10943 10945 10945 10946 10947 10947 10946 10945 10944 10943 10941 10941 10940 10939 10939 10938 10938 10938 10939 10939 10938 10937 10936 10934 10932 10933 10932 10931 10930 10929 10929 10929 10927 10922 10917 10917 10921 10924 10922 10919 10917 10916
10806 10809 10813 10816 10820 10824 10828 10833 10837 10842 10847 10850 10852 10853 10857 10865 10873 10879 10887 10891 10890 10893 10898 10901 10903 10908 10910 10914 10918 10920 10922 10924 10926 10928 10930 10931 10933 10934 10935 10936 10936 10938 10940 10939 10938 10939 10940 10942 10942 10943 10943 10944 10944 10942 10942 10942 10940 10939 10938 10937 10937 10936 10935 10936 10936 10937 10936 10935 10933 10931 10929 10930 10929 10928 10928 10927 10926 10926 10924 10920 10915 10913 10915 10916 10915 10914 10914 10912
10803 10807 10810 10814 10818 10822 10826 10831 10835 10840 10843 10846 10849 10852 10857 10865 10871 10876 10882 10883 10882 10885 10890 10894 10899 10904 10908 10912 10915 10917 10918 10922 10924 10925 10926 10929 10931 10931 10932 10933 10933 10935 10936 10936 10936 10936 10937 10939 10940 10940 10940 10941 10941 10940 10940 10940 10939 10938 10937 10936 10935 10935 10934 10933 10933 10934 10933 10932 10931 10929 10928 10928 10927 10926 10926 10925 10924 10923 10921 10919 10916 10915 10915 10915 10914 10914 10913 10911
10801 10804 10808 10812 10815 10819 10824 10829 10833 10836 10839 10843 10848 10851 10856 10863 10868 10871 10873 10874 10877 10883 10888 10894 10899 10904 10907 10909 10911 10913 10915 10918 10921 10921 10923 10927 10927 10926 10928 10930 10931 10932 10933 10933 10933 10933 10935 10938 10938 10937 10938 10938 10938 10938 10937 10937 10937 10936 10936 10935 10934 10933 10932 10932 10931 10931 10931 10930 10929 10927 10927 10928 10926 10924 10924 10923 10922 10921 10919 10917 10916 10915 10915 10914 10913 10913 10912 10911
10799 10802 10806 10810 10813 10817 10822 10826 10829 10833 10838 10842 10846 10850 10856 10863 10866 10869 10871 10873 10877 10881 10887 10893 10897 10900 10901 10902 10906 10910 10912 10915 10917 10917 10920 10922 10922 10925 10928 10928 10927 10928 10929 10930 10930 10930 10933 10936 10934 10934 10935 10934 10934 10934 10934 10935 10935 10934 10933 10932 10932 10931 10930 10930 10929 10928 10928 10928 10927 10926 10926 10927 10924 10922 10922 10921 10921 10919 10917 10916 10915 10914 10913 10912 10911 10911 10910 10909
10797 10800 10804 10807 10811 10815 10819 10824 10828 10833 10837 10841 10846 10852 10857 10860 10861 10864 10868 10872 10876 10881 10887 10891 10892 10894 10896 10899 10904 10908 10910 10912 10913 10913 10916 10918 10921 10925 10925 10923 10923 10925 10925 10926 10927 10929 10931 10932 10931 10932 10933 10932 10930 10930 10931 10932 10932 10931 10930 10929 10928 10927 10927 10927 10927 10926 10926 10925 10926 10925 10925 10924 10922 10920 10920 10920 10919 10918 10915 10914 10914 10913 10912 10909 10908 10908 10906 10904
10795 10798 10802 10806 10810 10814 10818 10822 10826 10830 10835 10840 10846 10851 10853 10854 10856 10859 10864 10869 10874 10879 10884 10885 10887 10891 10895 10899 10904 10906 10907 10908 10908 10910 10914 10918 10922 10921 10918 10919 10921 10921 10922 10924 10926 10928 10928 10928 10929 10929 10929 10929 10928 10928 10929 10929 10928 10927 10926 10925 10925 10924 10924 10924 10924 10924 10923 10923 10924 10924 10923 10921 10919 10919 10918 10918 10917 10916 10915 10913 10912 10910 10909 10907 10905 10904 10902 10899
10793 10797 10801 10805 10809 10813 10816 10820 10824 10830 10835 10839 10841 10843 10844 10848 10853 10858 10863 10868 10873 10877 10880 10882 10886 10891 10894 10898 10902 10902 10903 10904 10906 10910 10914 10916 10917 10914 10914 10918 10918 10917 10921 10923 10924 10925 10924 10925 10928 10926 10925 10926 10926 10926 10927 10927 10926 10925 10924 10923 10922 10921 10921 10921 10921 10921 10921 10921 10922 10922 10920 10918 10917 10917 10916 10916 10916 10915 10913 10911 10910 10907 10906 10904 10903 10901 10898 10895
10792 10796 10800 10804 10807 10811 10816 10821 10825 10830 10836 10838 10840 10841 10844 10849 10854 10859 10863 10868 10872 10875 10878 10881 10886 10889 10893 10896 10898 10898 10899 10902 10905 10909 10910 10911 10911 10911 10913 10916 10914 10916 10920 10921 10920 10921 10922 10924 10924 10923 10922 10923 10924 10924 10925 10924 10923 10923 10922 10921 10920 10919 10919 10918 10918 10918 10918 10919 10920 10919 10917 10916 10916 10914 10914 10914 10913 10911 10909 10908 10906 10904 10902 10901 10898 10895 10892 10890
10791 10795 10799 10803 10808 10812 10817 10821 10825 10827 10830 10834 10839 10844 10849 10852 10856 10860 10864 10867 10870 10873 10876 10880 10884 10888 10891 10893 10893 10894 10898 10901 10903 10904 10904 10906 10908 10909 10910 10912 10912 10914 10917 10917 10917 10919 10921 10921 10920 10920 10920 10920 10921 10921 10921 10920 10920 10919 10919 10918 10917 10917 10916 10916 10916 10916 10916 10917 10918 10916 10915 10915 10914 10912 10911 10910 10908 10907 10905 10903 10902 10901 10899 10897 10894 10891 10887 10884
10792 10795 10799 10803 10808 10812 10816 10820 10823 10825 10827 10830 10836 10843 10849 10853 10857 10860 10863 10866 10869 10872 10876 10879 10882 10885 10888 10889 10890 10893 10896 10898 10899 10900 10901 10904 10907 10907 10908 10911 10911 10912 10914 10916 10916 10917 10917 10917 10916 10917 10917 10917 10918 10918 10917 10917 10917 10916 10916 10915 10915 10914 10914 10913 10913 10913 10913 10913 10914 10914 10913 10912 10912 10911 10911 10909 10907 10906 10903 10900 10899 10899 10897 10895 10891 10886 10883 10881
10791 10796 10801 10804 10807 10810 10814 10816 10819 10824 10829 10833 10836 10840 10845 10850 10854 10858 10860 10864 10867 10871 10874 10877 10880 10882 10884 10886 10888 10891 10893 10894 10896 10898 10900 10903 10904 10905 10906 10908 10908 10909 10912 10913 10913 10914 10914 10913 10914 10915 10914 10914 10915 10915 10914 10914 10914 10913 10913 10913 10912 10912 10911 10911 10911 10911 10911 10911 10911 10912 10912 10911 10910 10910 10910 10909 10907 10904 10901 10899 10898 10896 10895 10893 10886 10880 10879 10878
10788 10792 10798 10804 10807 10810 10814 10818 10821 10826 10831 10835 10838 10841 10844 10848 10851 10854 10858 10862 10865 10869 10871 10874 10877 10879 10882 10884 10886 10889 10890 10893 10895 10897 10899 10900 10901 10902 10904 10905 10906 10907 10908 10909 10910 10911 10910 10910 10912 10911 10910 10911 10912 10911 10911 10911 10910 10910 10911 10910 10909 10909 10908 10908 10909 10909 10909 10909 10908 10908 10908 10908 10907 10906 10907 10906 10903 10899 10897 10895 10894 10892 10890 10888 10882 10876 10875 10873
10785 10789 10794 10799 10804 10810 10815 10821 10825 10827 10830 10834 10837 10840 10843 10846 10849 10852 10856 10859 10862 10865 10869 10871 10874 10877 10879 10882 10884 10887 10889 10891 10893 10895 10896 10897 10899 10900 10901 10902 10903 10905 10905 10906 10908 10907 10906 10908 10909 10908 10907 10908 10908 10908 10908 10907 10907 10908 10907 10906 10906 10906 10905 10905 10907 10907 10906 10904 10903 10904 10904 10902 10902 10902 10902 10901 10897 10894 10891 10888 10886 10885 10883 10881 10877 10873 10870 10867
10785 10788 10791 10796 10802 10808 10813 10819 10823 10826 10829 10832 10836 10839 10842 10845 10848 10851 10855 10858 10861 10864 10867 10869 10871 10874 10877 10879 10881 10884 10886 10888 10891 10893 10894 10895 10896 10898 10899 10900 10901 10902 10903 10904 10904 10904 10904 10905 10905 10904 10904 10905 10904 10904 10905 10905 10905 10905 10903 10902 10903 10903 10902 10902 10904 10905 10903 10901 10900 10900 10899 10898 10898 10898 10896 10893 10890 10888 10886 10883 10880 10878 10876 10874 10871 10868 10864 10861